Time,TemperatureF,DewpointF,PressureIn,WindDirection,WindDirectionDegrees,WindSpeedMPH,WindSpeedGustMPH,Humidity,HourlyPrecipIn,Conditions,Clouds,dailyrainin,SolarRadiationWatts/m^2,SoftwareType,DateUTC
2013-03-18 00:04:00,46.3,44.6,29.97,SW,231,0.0,2.0,94,0.00,,,0.00,0,HR-IXPWINDi_r2_v1.2.,2013-03-18 07:04:00,
2013-03-18 00:09:00,46.4,44.7,29.97,SW,231,1.0,2.0,94,0.00,,,0.00,0,HR-IXPWINDi_r2_v1.2.,2013-03-18 07:09:00,
2013-03-18 00:14:00,46.8,45.4,29.97,WNW,294,2.0,4.0,95,0.00,,,0.00,0,HR-IXPWINDi_r2_v1.2.,2013-03-18 07:14:00,
2013-03-18 00:19:00,46.8,45.4,29.97,WNW,295,1.0,4.0,95,0.00,,,0.00,0,HR-IXPWINDi_r2_v1.2.,2013-03-18 07:19:00,
2013-03-18 00:24:00,46.5,44.8,29.97,WNW,295,0.0,3.0,94,0.00,,,0.00,0,HR-IXPWINDi_r2_v1.2.,2013-03-18 07:24:00,
2013-03-18 00:30:00,46.4,44.7,29.97,WNW,295,0.0,2.0,94,0.00,,,0.00,0,HR-IXPWINDi_r2_v1.2.,2013-03-18 07:30:00,
2013-03-18 00:35:00,46.5,45.1,29.97,WNW,295,1.0,2.0,95,0.00,,,0.00,0,HR-IXPWINDi_r2_v1.2.,2013-03-18 07:35:00,
2013-03-18 00:40:00,46.5,45.1,29.97,NW,306,2.0,3.0,95,0.00,,,0.00,0,HR-IXPWINDi_r2_v1.2.,2013-03-18 07:40:00,
2013-03-18 00:45:00,46.9,45.5,29.96,NW,304,1.0,4.0,95,0.00,,,0.00,0,HR-IXPWINDi_r2_v1.2.,2013-03-18 07:45:00,
2013-03-18 00:50:00,46.9,45.5,29.96,NW,304,1.0,4.0,95,0.00,,,0.00,0,HR-IXPWINDi_r2_v1.2.,2013-03-18 07:50:00,
2013-03-18 00:55:00,47.0,45.6,29.97,NW,312,1.0,3.0,95,0.00,,,0.00,0,HR-IXPWINDi_r2_v1.2.,2013-03-18 07:55:00,
2013-03-18 01:01:00,47.1,45.7,29.96,NW,312,0.0,3.0,95,0.00,,,0.00,0,HR-IXPWINDi_r2_v1.2.,2013-03-18 08:01:00,
2013-03-18 01:06:00,47.1,45.7,29.96,NW,312,0.0,2.0,95,0.00,,,0.00,0,HR-IXPWINDi_r2_v1.2.,2013-03-18 08:06:00,
2013-03-18 01:11:00,46.7,45.0,29.96,NW,313,2.0,3.0,94,0.00,,,0.00,0,HR-IXPWINDi_r2_v1.2.,2013-03-18 08:11:00,
2013-03-18 01:16:00,46.9,45.5,29.97,NW,315,3.0,3.0,95,0.00,,,0.00,0,HR-IXPWINDi_r2_v1.2.,2013-03-18 08:16:00,
2013-03-18 01:22:00,46.9,45.5,29.97,NW,315,1.0,4.0,95,0.00,,,0.00,0,HR-IXPWINDi_r2_v1.2.,2013-03-18 08:22:00,
2013-03-18 01:27:00,46.9,45.5,29.97,NW,314,0.0,4.0,95,0.00,,,0.00,0,HR-IXPWINDi_r2_v1.2.,2013-03-18 08:27:00,
2013-03-18 01:32:00,46.8,45.4,29.97,NW,313,0.0,4.0,95,0.00,,,0.00,0,HR-IXPWINDi_r2_v1.2.,2013-03-18 08:32:00,
2013-03-18 01:37:00,46.5,44.8,29.97,NW,313,2.0,3.0,94,0.00,,,0.00,0,HR-IXPWINDi_r2_v1.2.,2013-03-18 08:37:00,
2013-03-18 01:42:00,46.7,45.3,29.97,NNW,334,3.0,5.0,95,0.00,,,0.00,0,HR-IXPWINDi_r2_v1.2.,2013-03-18 08:42:00,
2013-03-18 01:47:00,46.8,45.4,29.97,NW,312,2.0,5.0,95,0.00,,,0.00,0,HR-IXPWINDi_r2_v1.2.,2013-03-18 08:47:00,
2013-03-18 01:52:00,46.9,45.5,29.97,NW,304,3.0,5.0,95,0.00,,,0.00,0,HR-IXPWINDi_r2_v1.2.,2013-03-18 08:52:00,
2013-03-18 01:58:00,46.7,45.0,29.97,NW,304,2.0,4.0,94,0.00,,,0.00,0,HR-IXPWINDi_r2_v1.2.,2013-03-18 08:58:00,
2013-03-18 02:03:00,46.6,44.9,29.97,NW,304,0.0,3.0,94,0.00,,,0.00,0,HR-IXPWINDi_r2_v1.2.,2013-03-18 09:03:00,
2013-03-18 02:08:00,46.5,44.8,29.97,NW,304,0.0,2.0,94,0.00,,,0.00,0,HR-IXPWINDi_r2_v1.2.,2013-03-18 09:08:00,
2013-03-18 02:13:00,46.0,44.3,29.97,NW,304,0.0,1.0,94,0.00,,,0.00,0,HR-IXPWINDi_r2_v1.2.,2013-03-18 09:13:00,
2013-03-18 02:18:00,45.8,44.1,29.97,NW,304,1.0,1.0,94,0.00,,,0.00,0,HR-IXPWINDi_r2_v1.2.,2013-03-18 09:18:00,
2013-03-18 02:23:00,45.7,44.0,29.97,NW,304,0.0,2.0,94,0.00,,,0.00,0,HR-IXPWINDi_r2_v1.2.,2013-03-18 09:23:00,
2013-03-18 02:29:00,45.6,43.9,29.97,NW,304,0.0,2.0,94,0.00,,,0.00,0,HR-IXPWINDi_r2_v1.2.,2013-03-18 09:29:00,
2013-03-18 02:34:00,45.3,43.6,29.97,NW,304,0.0,1.0,94,0.00,,,0.00,0,HR-IXPWINDi_r2_v1.2.,2013-03-18 09:34:00,
2013-03-18 02:39:00,44.8,43.1,29.97,NW,304,0.0,0.0,94,0.00,,,0.00,0,HR-IXPWINDi_r2_v1.2.,2013-03-18 09:39:00,
2013-03-18 02:44:00,44.5,42.8,29.97,NW,304,0.0,0.0,94,0.00,,,0.00,0,HR-IXPWINDi_r2_v1.2.,2013-03-18 09:44:00,
2013-03-18 02:49:00,44.4,42.7,29.98,NW,304,0.0,2.0,94,0.00,,,0.00,0,HR-IXPWINDi_r2_v1.2.,2013-03-18 09:49:00,
2013-03-18 02:54:00,44.3,42.6,29.98,NW,304,0.0,2.0,94,0.00,,,0.00,0,HR-IXPWINDi_r2_v1.2.,2013-03-18 09:54:00,
2013-03-18 02:59:00,44.7,43.3,29.97,NW,304,2.0,3.0,95,0.00,,,0.00,0,HR-IXPWINDi_r2_v1.2.,2013-03-18 09:59:00,
2013-03-18 03:05:00,45.1,43.7,29.97,NW,304,0.0,4.0,95,0.00,,,0.00,0,HR-IXPWINDi_r2_v1.2.,2013-03-18 10:05:00,
2013-03-18 03:10:00,45.1,43.7,29.97,NW,304,0.0,4.0,95,0.00,,,0.00,0,HR-IXPWINDi_r2_v1.2.,2013-03-18 10:10:00,
2013-03-18 03:15:00,45.0,43.6,29.97,NW,304,1.0,2.0,95,0.00,,,0.00,0,HR-IXPWINDi_r2_v1.2.,2013-03-18 10:15:00,
2013-03-18 03:21:00,44.9,43.2,29.97,NW,304,0.0,2.0,94,0.00,,,0.00,0,HR-IXPWINDi_r2_v1.2.,2013-03-18 10:21:00,
2013-03-18 03:26:00,44.7,43.0,29.97,NW,304,0.0,1.0,94,0.00,,,0.00,0,HR-IXPWINDi_r2_v1.2.,2013-03-18 10:26:00,
2013-03-18 03:31:00,44.5,43.1,29.97,NW,304,0.0,1.0,95,0.00,,,0.00,0,HR-IXPWINDi_r2_v1.2.,2013-03-18 10:31:00,
2013-03-18 03:36:00,44.4,43.0,29.97,NW,304,0.0,2.0,95,0.00,,,0.00,0,HR-IXPWINDi_r2_v1.2.,2013-03-18 10:36:00,
2013-03-18 03:42:00,44.2,42.8,29.97,NW,304,1.0,2.0,95,0.00,,,0.00,0,HR-IXPWINDi_r2_v1.2.,2013-03-18 10:42:00,
2013-03-18 03:47:00,44.4,43.0,29.97,NW,304,0.0,2.0,95,0.00,,,0.00,0,HR-IXPWINDi_r2_v1.2.,2013-03-18 10:47:00,
2013-03-18 03:52:00,44.2,42.8,29.96,NW,304,0.0,2.0,95,0.00,,,0.00,0,HR-IXPWINDi_r2_v1.2.,2013-03-18 10:52:00,
2013-03-18 03:57:00,44.2,42.8,29.96,NW,304,0.0,1.0,95,0.00,,,0.00,0,HR-IXPWINDi_r2_v1.2.,2013-03-18 10:57:00,
2013-03-18 04:02:00,44.2,42.8,29.96,NW,304,0.0,2.0,95,0.00,,,0.00,0,HR-IXPWINDi_r2_v1.2.,2013-03-18 11:02:00,
2013-03-18 04:08:00,44.1,42.7,29.96,NW,304,0.0,3.0,95,0.00,,,0.00,0,HR-IXPWINDi_r2_v1.2.,2013-03-18 11:08:00,
2013-03-18 04:13:00,44.3,42.9,29.96,NW,304,0.0,3.0,95,0.00,,,0.00,0,HR-IXPWINDi_r2_v1.2.,2013-03-18 11:13:00,
2013-03-18 04:18:00,44.4,43.0,29.96,NW,304,1.0,3.0,95,0.00,,,0.00,0,HR-IXPWINDi_r2_v1.2.,2013-03-18 11:18:00,
2013-03-18 04:23:00,44.5,43.1,29.95,NW,304,0.0,3.0,95,0.00,,,0.00,0,HR-IXPWINDi_r2_v1.2.,2013-03-18 11:23:00,
2013-03-18 04:28:00,44.6,43.2,29.96,NW,304,0.0,2.0,95,0.00,,,0.00,0,HR-IXPWINDi_r2_v1.2.,2013-03-18 11:28:00,
2013-03-18 04:33:00,44.5,43.1,29.96,NW,304,1.0,2.0,95,0.00,,,0.00,0,HR-IXPWINDi_r2_v1.2.,2013-03-18 11:33:00,
2013-03-18 04:38:00,44.4,43.0,29.96,NW,304,0.0,2.0,95,0.00,,,0.00,0,HR-IXPWINDi_r2_v1.2.,2013-03-18 11:38:00,
2013-03-18 04:43:00,44.2,42.8,29.96,NW,304,0.0,2.0,95,0.00,,,0.00,0,HR-IXPWINDi_r2_v1.2.,2013-03-18 11:43:00,
2013-03-18 04:48:00,44.1,42.7,29.96,NW,304,0.0,0.0,95,0.00,,,0.00,0,HR-IXPWINDi_r2_v1.2.,2013-03-18 11:48:00,
2013-03-18 04:54:00,43.6,42.2,29.97,NW,304,0.0,1.0,95,0.00,,,0.00,0,HR-IXPWINDi_r2_v1.2.,2013-03-18 11:54:00,
2013-03-18 04:59:00,43.6,42.2,29.97,NW,304,0.0,1.0,95,0.00,,,0.00,0,HR-IXPWINDi_r2_v1.2.,2013-03-18 11:59:00,
2013-03-18 05:04:00,43.7,42.3,29.97,NW,304,0.0,1.0,95,0.00,,,0.00,0,HR-IXPWINDi_r2_v1.2.,2013-03-18 12:04:00,
2013-03-18 05:09:00,43.4,42.0,29.97,NW,304,0.0,0.0,95,0.00,,,0.00,0,HR-IXPWINDi_r2_v1.2.,2013-03-18 12:09:00,
2013-03-18 05:14:00,43.1,41.7,29.98,NW,304,0.0,1.0,95,0.00,,,0.00,0,HR-IXPWINDi_r2_v1.2.,2013-03-18 12:14:00,
2013-03-18 05:19:00,43.1,41.7,29.98,NW,304,1.0,2.0,95,0.00,,,0.00,0,HR-IXPWINDi_r2_v1.2.,2013-03-18 12:19:00,
2013-03-18 05:24:00,43.5,42.1,29.97,NW,307,1.0,3.0,95,0.00,,,0.00,0,HR-IXPWINDi_r2_v1.2.,2013-03-18 12:24:00,
2013-03-18 05:30:00,43.5,42.1,29.98,NW,307,0.0,3.0,95,0.00,,,0.00,0,HR-IXPWINDi_r2_v1.2.,2013-03-18 12:30:00,
2013-03-18 05:35:00,43.6,42.2,29.98,NW,307,0.0,2.0,95,0.00,,,0.00,0,HR-IXPWINDi_r2_v1.2.,2013-03-18 12:35:00,
2013-03-18 05:40:00,43.8,42.4,29.98,NW,307,0.0,1.0,95,0.00,,,0.00,0,HR-IXPWINDi_r2_v1.2.,2013-03-18 12:40:00,
2013-03-18 05:45:00,43.9,42.5,29.98,NW,307,0.0,1.0,95,0.00,,,0.00,0,HR-IXPWINDi_r2_v1.2.,2013-03-18 12:45:00,
2013-03-18 05:51:00,44.2,43.1,29.99,NW,307,0.0,1.0,96,0.00,,,0.00,0,HR-IXPWINDi_r2_v1.2.,2013-03-18 12:51:00,
2013-03-18 05:56:00,44.6,43.2,29.99,NW,307,0.0,0.0,95,0.00,,,0.00,0,HR-IXPWINDi_r2_v1.2.,2013-03-18 12:56:00,
2013-03-18 06:01:00,45.0,43.9,29.99,NW,307,0.0,0.0,96,0.00,,,0.00,0,HR-IXPWINDi_r2_v1.2.,2013-03-18 13:01:00,
2013-03-18 06:06:00,45.3,43.9,30.00,NW,307,0.0,1.0,95,0.00,,,0.00,0,HR-IXPWINDi_r2_v1.2.,2013-03-18 13:06:00,
2013-03-18 06:11:00,45.4,44.0,30.00,NW,307,0.0,2.0,95,0.00,,,0.00,0,HR-IXPWINDi_r2_v1.2.,2013-03-18 13:11:00,
2013-03-18 06:17:00,45.4,44.0,30.00,NW,307,0.0,2.0,95,0.00,,,0.00,0,HR-IXPWINDi_r2_v1.2.,2013-03-18 13:17:00,
2013-03-18 06:22:00,45.7,44.3,30.00,NW,307,0.0,1.0,95,0.00,,,0.00,0,HR-IXPWINDi_r2_v1.2.,2013-03-18 13:22:00,
2013-03-18 06:27:00,45.8,44.4,30.00,NW,307,0.0,0.0,95,0.00,,,0.00,0,HR-IXPWINDi_r2_v1.2.,2013-03-18 13:27:00,
2013-03-18 06:32:00,45.9,44.5,30.00,NW,307,0.0,1.0,95,0.00,,,0.00,0,HR-IXPWINDi_r2_v1.2.,2013-03-18 13:32:00,
2013-03-18 06:37:00,45.9,44.5,30.00,NW,307,0.0,1.0,95,0.00,,,0.00,0,HR-IXPWINDi_r2_v1.2.,2013-03-18 13:37:00,
2013-03-18 06:42:00,46.0,44.6,30.01,NW,307,0.0,2.0,95,0.00,,,0.00,0,HR-IXPWINDi_r2_v1.2.,2013-03-18 13:42:00,
2013-03-18 06:48:00,46.1,44.7,30.01,NW,307,0.0,2.0,95,0.00,,,0.00,0,HR-IXPWINDi_r2_v1.2.,2013-03-18 13:48:00,
2013-03-18 06:53:00,46.2,44.8,30.01,NW,307,0.0,1.0,95,0.00,,,0.00,0,HR-IXPWINDi_r2_v1.2.,2013-03-18 13:53:00,
2013-03-18 06:58:00,46.2,44.8,30.02,NW,313,0.0,2.0,95,0.00,,,0.00,0,HR-IXPWINDi_r2_v1.2.,2013-03-18 13:58:00,
2013-03-18 07:03:00,46.1,44.7,30.02,NW,315,0.0,2.0,95,0.00,,,0.00,0,HR-IXPWINDi_r2_v1.2.,2013-03-18 14:03:00,
2013-03-18 07:08:00,46.0,44.6,30.03,NW,315,2.0,2.0,95,0.00,,,0.00,0,HR-IXPWINDi_r2_v1.2.,2013-03-18 14:08:00,
2013-03-18 07:14:00,46.0,44.6,30.03,NNW,344,1.0,3.0,95,0.00,,,0.00,5,HR-IXPWINDi_r2_v1.2.,2013-03-18 14:14:00,
2013-03-18 07:19:00,46.2,44.8,30.02,WNW,298,3.0,3.0,95,0.00,,,0.00,9,HR-IXPWINDi_r2_v1.2.,2013-03-18 14:19:00,
2013-03-18 07:24:00,46.6,45.2,30.02,NW,320,2.0,3.0,95,0.00,,,0.00,12,HR-IXPWINDi_r2_v1.2.,2013-03-18 14:24:00,
2013-03-18 07:29:00,46.9,45.5,30.02,WNW,286,4.0,4.0,95,0.00,,,0.00,16,HR-IXPWINDi_r2_v1.2.,2013-03-18 14:29:00,
2013-03-18 07:35:00,47.4,46.0,30.03,WNW,293,1.0,5.0,95,0.00,,,0.00,19,HR-IXPWINDi_r2_v1.2.,2013-03-18 14:35:00,
2013-03-18 07:40:00,47.9,46.2,30.03,NW,323,2.0,5.0,94,0.00,,,0.00,21,HR-IXPWINDi_r2_v1.2.,2013-03-18 14:40:00,
2013-03-18 07:45:00,48.1,46.4,30.03,NW,310,3.0,6.0,94,0.00,,,0.00,25,HR-IXPWINDi_r2_v1.2.,2013-03-18 14:45:00,
2013-03-18 07:50:00,48.2,46.5,30.03,NW,317,2.0,6.0,94,0.00,,,0.00,26,HR-IXPWINDi_r2_v1.2.,2013-03-18 14:50:00,
2013-03-18 07:56:00,48.4,46.7,30.03,NW,313,1.0,5.0,94,0.00,,,0.00,32,HR-IXPWINDi_r2_v1.2.,2013-03-18 14:56:00,
2013-03-18 08:01:00,48.6,46.9,30.03,NW,322,4.0,4.0,94,0.00,,,0.00,33,HR-IXPWINDi_r2_v1.2.,2013-03-18 15:01:00,
2013-03-18 08:06:00,48.8,47.1,30.03,WNW,300,3.0,7.0,94,0.00,,,0.00,47,HR-IXPWINDi_r2_v1.2.,2013-03-18 15:06:00,
2013-03-18 08:11:00,49.0,47.3,30.03,WNW,291,3.0,7.0,94,0.00,,,0.00,51,HR-IXPWINDi_r2_v1.2.,2013-03-18 15:11:00,
2013-03-18 08:16:00,49.3,47.3,30.03,NW,319,3.0,5.0,93,0.00,,,0.00,58,HR-IXPWINDi_r2_v1.2.,2013-03-18 15:16:00,
2013-03-18 08:21:00,49.6,47.6,30.04,WNW,294,0.0,4.0,93,0.00,,,0.00,56,HR-IXPWINDi_r2_v1.2.,2013-03-18 15:21:00,
2013-03-18 08:26:00,49.8,47.8,30.04,WNW,299,1.0,4.0,93,0.00,,,0.00,63,HR-IXPWINDi_r2_v1.2.,2013-03-18 15:26:00,
2013-03-18 08:32:00,50.0,48.0,30.04,NW,304,1.0,3.0,93,0.00,,,0.00,63,HR-IXPWINDi_r2_v1.2.,2013-03-18 15:32:00,
2013-03-18 08:37:00,50.2,47.9,30.03,WNW,292,0.0,4.0,92,0.00,,,0.00,65,HR-IXPWINDi_r2_v1.2.,2013-03-18 15:37:00,
2013-03-18 08:42:00,50.5,48.2,30.03,WNW,288,3.0,4.0,92,0.00,,,0.00,81,HR-IXPWINDi_r2_v1.2.,2013-03-18 15:42:00,
2013-03-18 08:47:00,50.8,48.2,30.03,WNW,298,3.0,5.0,91,0.00,,,0.00,79,HR-IXPWINDi_r2_v1.2.,2013-03-18 15:47:00,
2013-03-18 08:53:00,51.2,48.6,30.04,WNW,299,0.0,5.0,91,0.00,,,0.00,74,HR-IXPWINDi_r2_v1.2.,2013-03-18 15:53:00,
2013-03-18 08:58:00,51.5,49.2,30.04,West,279,0.0,3.0,92,0.00,,,0.00,72,HR-IXPWINDi_r2_v1.2.,2013-03-18 15:58:00,
2013-03-18 09:03:00,51.8,49.2,30.04,West,279,0.0,2.0,91,0.00,,,0.00,76,HR-IXPWINDi_r2_v1.2.,2013-03-18 16:03:00,
2013-03-18 09:08:00,51.9,49.3,30.04,West,279,0.0,1.0,91,0.00,,,0.00,90,HR-IXPWINDi_r2_v1.2.,2013-03-18 16:08:00,
2013-03-18 09:13:00,51.9,49.3,30.04,West,279,0.0,1.0,91,0.00,,,0.00,93,HR-IXPWINDi_r2_v1.2.,2013-03-18 16:13:00,
2013-03-18 09:18:00,52.2,49.9,30.04,West,279,0.0,1.0,92,0.00,,,0.00,100,HR-IXPWINDi_r2_v1.2.,2013-03-18 16:18:00,
2013-03-18 09:23:00,52.1,49.5,30.05,SSW,200,2.0,3.0,91,0.00,,,0.00,102,HR-IXPWINDi_r2_v1.2.,2013-03-18 16:23:00,
2013-03-18 09:28:00,51.8,49.2,30.05,South,191,1.0,4.0,91,0.00,,,0.00,97,HR-IXPWINDi_r2_v1.2.,2013-03-18 16:28:00,
2013-03-18 09:34:00,52.2,49.9,30.06,South,191,0.0,4.0,92,0.00,,,0.00,102,HR-IXPWINDi_r2_v1.2.,2013-03-18 16:34:00,
2013-03-18 09:39:00,52.7,50.4,30.06,South,191,2.0,4.0,92,0.00,,,0.00,86,HR-IXPWINDi_r2_v1.2.,2013-03-18 16:39:00,
2013-03-18 09:44:00,52.6,50.0,30.06,South,191,1.0,4.0,91,0.00,,,0.00,88,HR-IXPWINDi_r2_v1.2.,2013-03-18 16:44:00,
2013-03-18 09:49:00,52.6,50.0,30.06,South,191,0.0,4.0,91,0.00,,,0.00,90,HR-IXPWINDi_r2_v1.2.,2013-03-18 16:49:00,
2013-03-18 09:54:00,52.8,50.2,30.06,South,191,0.0,2.0,91,0.00,,,0.00,63,HR-IXPWINDi_r2_v1.2.,2013-03-18 16:54:00,
2013-03-18 09:59:00,53.2,50.6,30.06,South,191,0.0,2.0,91,0.00,,,0.00,104,HR-IXPWINDi_r2_v1.2.,2013-03-18 16:59:00,
2013-03-18 10:04:00,53.4,50.8,30.06,South,191,0.0,1.0,91,0.00,,,0.00,109,HR-IXPWINDi_r2_v1.2.,2013-03-18 17:04:00,
2013-03-18 10:10:00,53.7,50.8,30.06,South,191,0.0,1.0,90,0.00,,,0.00,116,HR-IXPWINDi_r2_v1.2.,2013-03-18 17:10:00,
2013-03-18 10:15:00,54.1,50.9,30.06,South,189,2.0,2.0,89,0.00,,,0.00,121,HR-IXPWINDi_r2_v1.2.,2013-03-18 17:15:00,
2013-03-18 10:20:00,54.3,51.1,30.05,South,188,1.0,3.0,89,0.00,,,0.00,149,HR-IXPWINDi_r2_v1.2.,2013-03-18 17:20:00,
2013-03-18 10:25:00,54.0,50.8,30.05,SE,145,0.0,3.0,89,0.00,,,0.00,176,HR-IXPWINDi_r2_v1.2.,2013-03-18 17:25:00,
2013-03-18 10:30:00,54.8,51.2,30.05,SSW,200,1.0,3.0,88,0.00,,,0.00,155,HR-IXPWINDi_r2_v1.2.,2013-03-18 17:30:00,
2013-03-18 10:35:00,54.7,51.2,30.06,SSE,153,0.0,4.0,88,0.00,,,0.00,155,HR-IXPWINDi_r2_v1.2.,2013-03-18 17:35:00,
2013-03-18 10:40:00,55.0,51.4,30.06,SE,141,2.0,4.0,88,0.00,,,0.00,181,HR-IXPWINDi_r2_v1.2.,2013-03-18 17:40:00,
2013-03-18 10:46:00,55.1,51.5,30.05,ESE,117,1.0,3.0,88,0.00,,,0.00,220,HR-IXPWINDi_r2_v1.2.,2013-03-18 17:46:00,
2013-03-18 10:51:00,55.5,51.6,30.06,ESE,113,2.0,2.0,87,0.00,,,0.00,213,HR-IXPWINDi_r2_v1.2.,2013-03-18 17:51:00,
2013-03-18 10:57:00,55.9,51.7,30.05,East,84,0.0,3.0,86,0.00,,,0.00,246,HR-IXPWINDi_r2_v1.2.,2013-03-18 17:57:00,
2013-03-18 11:02:00,56.7,52.5,30.05,SE,130,1.0,3.0,86,0.00,,,0.00,401,HR-IXPWINDi_r2_v1.2.,2013-03-18 18:02:00,
2013-03-18 11:07:00,57.8,52.9,30.05,SSE,167,2.0,4.0,84,0.00,,,0.00,446,HR-IXPWINDi_r2_v1.2.,2013-03-18 18:07:00,
2013-03-18 11:12:00,57.9,52.7,30.05,South,182,3.0,5.0,83,0.00,,,0.00,371,HR-IXPWINDi_r2_v1.2.,2013-03-18 18:12:00,
2013-03-18 11:18:00,58.4,52.2,30.05,South,184,4.0,6.0,80,0.00,,,0.00,427,HR-IXPWINDi_r2_v1.2.,2013-03-18 18:18:00,
2013-03-18 11:23:00,57.5,51.7,30.05,SSW,198,2.0,6.0,81,0.00,,,0.00,529,HR-IXPWINDi_r2_v1.2.,2013-03-18 18:23:00,
2013-03-18 11:28:00,59.0,53.8,30.04,SSE,161,2.0,6.0,83,0.00,,,0.00,738,HR-IXPWINDi_r2_v1.2.,2013-03-18 18:28:00,
2013-03-18 11:33:00,59.9,53.7,30.04,East,93,1.0,6.0,80,0.00,,,0.00,448,HR-IXPWINDi_r2_v1.2.,2013-03-18 18:33:00,
2013-03-18 11:38:00,60.4,53.4,30.04,South,176,1.0,6.0,78,0.00,,,0.00,353,HR-IXPWINDi_r2_v1.2.,2013-03-18 18:38:00,
2013-03-18 11:43:00,60.2,53.6,30.05,SSE,160,2.0,6.0,79,0.00,,,0.00,378,HR-IXPWINDi_r2_v1.2.,2013-03-18 18:43:00,
2013-03-18 11:48:00,59.4,52.8,30.05,SSE,164,4.0,5.0,79,0.00,,,0.00,446,HR-IXPWINDi_r2_v1.2.,2013-03-18 18:48:00,
2013-03-18 11:53:00,61.9,54.5,30.05,East,89,2.0,6.0,77,0.00,,,0.00,895,HR-IXPWINDi_r2_v1.2.,2013-03-18 18:53:00,
2013-03-18 11:58:00,61.7,54.0,30.05,SSE,155,2.0,6.0,76,0.00,,,0.00,547,HR-IXPWINDi_r2_v1.2.,2013-03-18 18:58:00,
2013-03-18 12:04:00,62.3,53.8,30.05,SSW,193,6.0,6.0,74,0.00,,,0.00,798,HR-IXPWINDi_r2_v1.2.,2013-03-18 19:04:00,
2013-03-18 12:09:00,61.8,54.5,30.05,South,184,2.0,6.0,77,0.00,,,0.00,735,HR-IXPWINDi_r2_v1.2.,2013-03-18 19:09:00,
2013-03-18 12:14:00,62.6,54.5,30.05,SW,219,0.0,6.0,75,0.00,,,0.00,793,HR-IXPWINDi_r2_v1.2.,2013-03-18 19:14:00,
2013-03-18 12:19:00,63.5,54.6,30.04,SSE,159,1.0,5.0,73,0.00,,,0.00,737,HR-IXPWINDi_r2_v1.2.,2013-03-18 19:19:00,
2013-03-18 12:25:00,63.6,54.0,30.04,ESE,109,0.0,5.0,71,0.00,,,0.00,640,HR-IXPWINDi_r2_v1.2.,2013-03-18 19:25:00,
2013-03-18 12:30:00,63.9,54.6,30.04,SSW,205,1.0,5.0,72,0.00,,,0.00,591,HR-IXPWINDi_r2_v1.2.,2013-03-18 19:30:00,
2013-03-18 12:35:00,63.9,54.3,30.04,South,169,5.0,5.0,71,0.00,,,0.00,613,HR-IXPWINDi_r2_v1.2.,2013-03-18 19:35:00,
2013-03-18 12:40:00,63.3,54.4,30.04,SSE,148,0.0,7.0,73,0.00,,,0.00,573,HR-IXPWINDi_r2_v1.2.,2013-03-18 19:40:00,
2013-03-18 12:45:00,62.8,52.8,30.04,SSE,161,1.0,7.0,70,0.00,,,0.00,568,HR-IXPWINDi_r2_v1.2.,2013-03-18 19:45:00,
2013-03-18 12:50:00,62.6,54.1,30.04,SSE,164,4.0,8.0,74,0.00,,,0.00,642,HR-IXPWINDi_r2_v1.2.,2013-03-18 19:50:00,
2013-03-18 12:55:00,63.7,54.1,30.03,ENE,76,1.0,8.0,71,0.00,,,0.00,682,HR-IXPWINDi_r2_v1.2.,2013-03-18 19:55:00,
2013-03-18 13:00:00,64.3,54.6,30.03,South,178,1.0,6.0,71,0.00,,,0.00,703,HR-IXPWINDi_r2_v1.2.,2013-03-18 20:00:00,
2013-03-18 13:05:00,64.8,54.3,30.02,SE,126,1.0,6.0,69,0.00,,,0.00,563,HR-IXPWINDi_r2_v1.2.,2013-03-18 20:05:00,
2013-03-18 13:11:00,63.8,52.6,30.02,South,186,0.0,5.0,67,0.00,,,0.00,652,HR-IXPWINDi_r2_v1.2.,2013-03-18 20:11:00,
2013-03-18 13:16:00,65.0,55.3,30.02,ESE,106,1.0,6.0,71,0.00,,,0.00,629,HR-IXPWINDi_r2_v1.2.,2013-03-18 20:16:00,
2013-03-18 13:21:00,65.2,54.7,30.02,South,171,2.0,9.0,69,0.00,,,0.00,624,HR-IXPWINDi_r2_v1.2.,2013-03-18 20:21:00,
2013-03-18 13:26:00,65.6,54.7,30.02,ESE,118,1.0,9.0,68,0.00,,,0.00,527,HR-IXPWINDi_r2_v1.2.,2013-03-18 20:26:00,
2013-03-18 13:31:00,64.4,53.1,30.02,South,183,2.0,11.0,67,0.00,,,0.00,584,HR-IXPWINDi_r2_v1.2.,2013-03-18 20:31:00,
2013-03-18 13:37:00,65.4,53.3,30.02,South,173,3.0,11.0,65,0.00,,,0.00,707,HR-IXPWINDi_r2_v1.2.,2013-03-18 20:37:00,
2013-03-18 13:42:00,64.7,53.4,30.02,South,182,3.0,10.0,67,0.00,,,0.00,636,HR-IXPWINDi_r2_v1.2.,2013-03-18 20:42:00,
2013-03-18 13:47:00,64.9,54.0,30.01,SE,138,3.0,9.0,68,0.00,,,0.00,587,HR-IXPWINDi_r2_v1.2.,2013-03-18 20:47:00,
2013-03-18 13:52:00,64.8,53.5,30.02,SSE,150,0.0,8.0,67,0.00,,,0.00,705,HR-IXPWINDi_r2_v1.2.,2013-03-18 20:52:00,
2013-03-18 13:57:00,65.0,53.7,30.02,South,175,5.0,8.0,67,0.00,,,0.00,548,HR-IXPWINDi_r2_v1.2.,2013-03-18 20:57:00,
2013-03-18 14:03:00,63.4,53.0,30.01,SE,139,3.0,8.0,69,0.00,,,0.00,563,HR-IXPWINDi_r2_v1.2.,2013-03-18 21:03:00,
2013-03-18 14:08:00,63.6,52.8,30.01,SSW,194,7.0,11.0,68,0.00,,,0.00,534,HR-IXPWINDi_r2_v1.2.,2013-03-18 21:08:00,
2013-03-18 14:13:00,63.0,53.0,30.02,South,173,6.0,11.0,70,0.00,,,0.00,506,HR-IXPWINDi_r2_v1.2.,2013-03-18 21:13:00,
2013-03-18 14:18:00,63.7,54.1,30.01,SSE,164,0.0,9.0,71,0.00,,,0.00,490,HR-IXPWINDi_r2_v1.2.,2013-03-18 21:18:00,
2013-03-18 14:23:00,64.1,53.7,30.01,South,172,0.0,7.0,69,0.00,,,0.00,466,HR-IXPWINDi_r2_v1.2.,2013-03-18 21:23:00,
2013-03-18 14:28:00,64.0,52.8,30.01,SSE,163,3.0,7.0,67,0.00,,,0.00,383,HR-IXPWINDi_r2_v1.2.,2013-03-18 21:28:00,
2013-03-18 14:34:00,63.7,53.3,30.00,SSE,153,4.0,7.0,69,0.00,,,0.00,399,HR-IXPWINDi_r2_v1.2.,2013-03-18 21:34:00,
2013-03-18 14:39:00,62.3,53.1,30.00,South,186,4.0,11.0,72,0.00,,,0.00,394,HR-IXPWINDi_r2_v1.2.,2013-03-18 21:39:00,
2013-03-18 14:44:00,62.3,52.7,30.00,South,177,8.0,11.0,71,0.00,,,0.00,367,HR-IXPWINDi_r2_v1.2.,2013-03-18 21:44:00,
2013-03-18 14:49:00,61.9,51.9,30.00,South,187,6.0,10.0,70,0.00,,,0.00,304,HR-IXPWINDi_r2_v1.2.,2013-03-18 21:49:00,
2013-03-18 14:54:00,61.6,52.0,30.00,South,187,4.0,9.0,71,0.00,,,0.00,320,HR-IXPWINDi_r2_v1.2.,2013-03-18 21:54:00,
2013-03-18 16:12:00,60.6,52.2,29.99,SSW,202,4.0,5.0,74,0.00,,,0.00,248,HR-IXPWINDi_r2_v1.2.,2013-03-18 23:12:00,
2013-03-18 16:17:00,60.7,51.9,29.99,South,180,0.0,5.0,73,0.00,,,0.00,200,HR-IXPWINDi_r2_v1.2.,2013-03-18 23:17:00,
2013-03-18 16:23:00,60.8,51.7,29.99,SE,132,4.0,7.0,72,0.00,,,0.00,179,HR-IXPWINDi_r2_v1.2.,2013-03-18 23:23:00,
2013-03-18 16:28:00,60.1,51.7,29.99,South,191,3.0,7.0,74,0.00,,,0.00,158,HR-IXPWINDi_r2_v1.2.,2013-03-18 23:28:00,
2013-03-18 16:33:00,59.7,51.3,29.98,South,190,2.0,5.0,74,0.00,,,0.00,155,HR-IXPWINDi_r2_v1.2.,2013-03-18 23:33:00,
2013-03-18 16:38:00,60.1,52.4,29.98,South,169,0.0,4.0,76,0.00,,,0.00,162,HR-IXPWINDi_r2_v1.2.,2013-03-18 23:38:00,
2013-03-18 16:43:00,60.0,52.0,29.98,South,190,5.0,5.0,75,0.00,,,0.00,162,HR-IXPWINDi_r2_v1.2.,2013-03-18 23:43:00,
2013-03-18 16:48:00,59.8,51.8,29.98,SSE,167,4.0,5.0,75,0.00,,,0.00,139,HR-IXPWINDi_r2_v1.2.,2013-03-18 23:48:00,
2013-03-18 16:54:00,59.6,51.6,29.98,South,178,2.0,5.0,75,0.00,,,0.00,139,HR-IXPWINDi_r2_v1.2.,2013-03-18 23:54:00,
2013-03-18 16:59:00,59.1,51.5,29.98,SSW,192,1.0,7.0,76,0.00,,,0.00,135,HR-IXPWINDi_r2_v1.2.,2013-03-18 23:59:00,
2013-03-18 17:04:00,58.7,51.1,29.98,South,190,3.0,7.0,76,0.00,,,0.00,127,HR-IXPWINDi_r2_v1.2.,2013-03-19 00:04:00,
2013-03-18 17:09:00,58.8,51.2,29.98,South,190,2.0,7.0,76,0.00,,,0.00,116,HR-IXPWINDi_r2_v1.2.,2013-03-19 00:09:00,
2013-03-18 17:15:00,58.6,51.0,29.99,SSE,154,2.0,6.0,76,0.00,,,0.00,102,HR-IXPWINDi_r2_v1.2.,2013-03-19 00:15:00,
2013-03-18 17:20:00,58.2,50.6,29.98,West,273,3.0,6.0,76,0.00,,,0.00,104,HR-IXPWINDi_r2_v1.2.,2013-03-19 00:20:00,
2013-03-18 17:25:00,58.2,51.0,29.98,South,191,4.0,8.0,77,0.00,,,0.00,102,HR-IXPWINDi_r2_v1.2.,2013-03-19 00:25:00,
2013-03-18 17:31:00,57.9,50.7,29.98,SSW,198,4.0,8.0,77,0.00,,,0.00,95,HR-IXPWINDi_r2_v1.2.,2013-03-19 00:31:00,
2013-03-18 17:36:00,57.8,50.9,29.98,South,181,4.0,6.0,78,0.00,,,0.00,90,HR-IXPWINDi_r2_v1.2.,2013-03-19 00:36:00,
2013-03-18 17:41:00,57.7,50.8,29.99,SSW,194,3.0,5.0,78,0.00,,,0.00,76,HR-IXPWINDi_r2_v1.2.,2013-03-19 00:41:00,
2013-03-18 17:46:00,57.5,50.6,29.99,SSW,202,0.0,5.0,78,0.00,,,0.00,67,HR-IXPWINDi_r2_v1.2.,2013-03-19 00:46:00,
2013-03-18 17:51:00,57.3,50.4,30.00,South,186,4.0,6.0,78,0.00,,,0.00,76,HR-IXPWINDi_r2_v1.2.,2013-03-19 00:51:00,
2013-03-18 17:56:00,57.3,50.8,30.01,South,186,4.0,8.0,79,0.00,,,0.00,86,HR-IXPWINDi_r2_v1.2.,2013-03-19 00:56:00,
2013-03-18 18:01:00,57.1,50.6,30.02,South,186,1.0,8.0,79,0.00,,,0.00,76,HR-IXPWINDi_r2_v1.2.,2013-03-19 01:01:00,
2013-03-18 18:06:00,56.8,50.3,30.02,SW,215,3.0,8.0,79,0.00,,,0.00,53,HR-IXPWINDi_r2_v1.2.,2013-03-19 01:06:00,
2013-03-18 18:12:00,56.6,50.4,30.02,South,188,1.0,7.0,80,0.00,,,0.00,46,HR-IXPWINDi_r2_v1.2.,2013-03-19 01:12:00,
2013-03-18 18:17:00,56.6,50.8,30.02,SSE,167,0.0,6.0,81,0.00,,,0.00,40,HR-IXPWINDi_r2_v1.2.,2013-03-19 01:17:00,
2013-03-18 18:22:00,56.4,50.6,30.01,South,170,0.0,4.0,81,0.00,,,0.00,33,HR-IXPWINDi_r2_v1.2.,2013-03-19 01:22:00,
2013-03-18 18:28:00,56.3,50.5,30.01,South,188,2.0,4.0,81,0.00,,,0.00,25,HR-IXPWINDi_r2_v1.2.,2013-03-19 01:28:00,
2013-03-18 18:33:00,56.2,50.7,30.01,SSW,197,0.0,4.0,82,0.00,,,0.00,19,HR-IXPWINDi_r2_v1.2.,2013-03-19 01:33:00,
2013-03-18 18:38:00,56.0,50.5,30.01,South,172,2.0,6.0,82,0.00,,,0.00,16,HR-IXPWINDi_r2_v1.2.,2013-03-19 01:38:00,
2013-03-18 18:43:00,55.7,50.2,30.01,SSE,155,2.0,6.0,82,0.00,,,0.00,14,HR-IXPWINDi_r2_v1.2.,2013-03-19 01:43:00,
2013-03-18 18:48:00,55.4,50.3,30.01,South,173,3.0,6.0,83,0.00,,,0.00,12,HR-IXPWINDi_r2_v1.2.,2013-03-19 01:48:00,
2013-03-18 18:54:00,55.2,50.4,30.01,South,190,1.0,6.0,84,0.00,,,0.00,9,HR-IXPWINDi_r2_v1.2.,2013-03-19 01:54:00,
2013-03-18 18:59:00,54.9,50.1,30.01,South,190,0.0,4.0,84,0.00,,,0.00,5,HR-IXPWINDi_r2_v1.2.,2013-03-19 01:59:00,
2013-03-18 19:04:00,54.6,49.8,30.01,South,190,0.0,3.0,84,0.00,,,0.00,0,HR-IXPWINDi_r2_v1.2.,2013-03-19 02:04:00,
2013-03-18 19:09:00,54.5,50.0,30.01,South,190,0.0,3.0,85,0.00,,,0.00,0,HR-IXPWINDi_r2_v1.2.,2013-03-19 02:09:00,
2013-03-18 19:14:00,54.3,49.8,30.01,South,190,0.0,1.0,85,0.00,,,0.00,0,HR-IXPWINDi_r2_v1.2.,2013-03-19 02:14:00,
2013-03-18 19:19:00,54.2,50.0,30.01,South,190,0.0,1.0,86,0.00,,,0.00,0,HR-IXPWINDi_r2_v1.2.,2013-03-19 02:19:00,
2013-03-18 19:24:00,54.1,49.9,30.02,South,190,0.0,1.0,86,0.00,,,0.00,0,HR-IXPWINDi_r2_v1.2.,2013-03-19 02:24:00,
2013-03-18 19:30:00,54.0,49.8,30.02,South,190,0.0,3.0,86,0.00,,,0.00,0,HR-IXPWINDi_r2_v1.2.,2013-03-19 02:30:00,
2013-03-18 19:35:00,53.9,49.7,30.02,South,190,1.0,3.0,86,0.00,,,0.00,0,HR-IXPWINDi_r2_v1.2.,2013-03-19 02:35:00,
2013-03-18 19:40:00,53.9,49.7,30.02,South,190,0.0,2.0,86,0.00,,,0.00,0,HR-IXPWINDi_r2_v1.2.,2013-03-19 02:40:00,
2013-03-18 19:45:00,53.9,49.7,30.02,South,190,0.0,2.0,86,0.00,,,0.00,0,HR-IXPWINDi_r2_v1.2.,2013-03-19 02:45:00,
2013-03-18 19:50:00,53.8,49.6,30.02,South,190,0.0,1.0,86,0.00,,,0.00,0,HR-IXPWINDi_r2_v1.2.,2013-03-19 02:50:00,
2013-03-18 19:55:00,53.7,49.9,30.02,South,190,0.0,0.0,87,0.00,,,0.00,0,HR-IXPWINDi_r2_v1.2.,2013-03-19 02:55:00,
2013-03-18 20:00:00,53.5,49.7,30.02,South,190,0.0,1.0,87,0.00,,,0.00,0,HR-IXPWINDi_r2_v1.2.,2013-03-19 03:00:00,
2013-03-18 20:05:00,53.3,49.5,30.01,South,190,0.0,1.0,87,0.00,,,0.00,0,HR-IXPWINDi_r2_v1.2.,2013-03-19 03:05:00,
2013-03-18 20:11:00,52.9,49.4,30.01,South,190,0.0,0.0,88,0.00,,,0.00,0,HR-IXPWINDi_r2_v1.2.,2013-03-19 03:11:00,
2013-03-18 20:16:00,52.6,49.1,30.02,South,190,0.0,0.0,88,0.00,,,0.00,0,HR-IXPWINDi_r2_v1.2.,2013-03-19 03:16:00,
2013-03-18 20:21:00,52.5,49.3,30.02,South,190,0.0,0.0,89,0.00,,,0.00,0,HR-IXPWINDi_r2_v1.2.,2013-03-19 03:21:00,
2013-03-18 20:26:00,52.5,49.3,30.03,South,190,0.0,0.0,89,0.00,,,0.00,0,HR-IXPWINDi_r2_v1.2.,2013-03-19 03:26:00,
2013-03-18 20:31:00,52.6,49.4,30.03,South,190,0.0,2.0,89,0.00,,,0.00,0,HR-IXPWINDi_r2_v1.2.,2013-03-19 03:31:00,
2013-03-18 20:36:00,52.3,49.1,30.03,South,190,0.0,2.0,89,0.00,,,0.00,0,HR-IXPWINDi_r2_v1.2.,2013-03-19 03:36:00,
2013-03-18 20:41:00,52.1,49.2,30.03,South,190,0.0,1.0,90,0.00,,,0.00,0,HR-IXPWINDi_r2_v1.2.,2013-03-19 03:41:00,
2013-03-18 20:46:00,52.0,49.1,30.03,South,190,0.0,1.0,90,0.00,,,0.00,0,HR-IXPWINDi_r2_v1.2.,2013-03-19 03:46:00,
2013-03-18 20:51:00,51.7,48.8,30.03,SW,216,0.0,2.0,90,0.00,,,0.00,0,HR-IXPWINDi_r2_v1.2.,2013-03-19 03:51:00,
2013-03-18 20:57:00,51.5,48.6,30.03,SW,216,1.0,2.0,90,0.00,,,0.00,0,HR-IXPWINDi_r2_v1.2.,2013-03-19 03:57:00,
2013-03-18 21:00:00,51.4,48.5,30.03,SW,216,0.0,1.0,90,0.00,,,0.00,0,HR-IXPWINDi_r2_v1.2.,2013-03-19 04:00:00,
2013-03-18 21:05:00,51.0,48.4,30.03,SW,216,0.0,1.0,91,0.00,,,0.00,0,HR-IXPWINDi_r2_v1.2.,2013-03-19 04:05:00,
2013-03-18 21:10:00,50.9,48.3,30.03,SW,216,0.0,1.0,91,0.00,,,0.00,0,HR-IXPWINDi_r2_v1.2.,2013-03-19 04:10:00,
2013-03-18 21:15:00,50.6,48.0,30.04,SW,216,0.0,0.0,91,0.00,,,0.00,0,HR-IXPWINDi_r2_v1.2.,2013-03-19 04:15:00,
2013-03-18 21:20:00,50.2,47.6,30.04,SW,216,0.0,0.0,91,0.00,,,0.00,0,HR-IXPWINDi_r2_v1.2.,2013-03-19 04:20:00,
2013-03-18 21:26:00,49.9,47.3,30.04,SW,216,0.0,0.0,91,0.00,,,0.00,0,HR-IXPWINDi_r2_v1.2.,2013-03-19 04:26:00,
2013-03-18 21:31:00,49.6,47.3,30.04,SW,216,1.0,2.0,92,0.00,,,0.00,0,HR-IXPWINDi_r2_v1.2.,2013-03-19 04:31:00,
2013-03-18 21:36:00,49.7,47.4,30.04,SW,216,0.0,2.0,92,0.00,,,0.00,0,HR-IXPWINDi_r2_v1.2.,2013-03-19 04:36:00,
2013-03-18 21:42:00,49.6,47.3,30.04,SW,216,0.0,1.0,92,0.00,,,0.00,0,HR-IXPWINDi_r2_v1.2.,2013-03-19 04:42:00,
2013-03-18 21:47:00,49.3,47.0,30.04,SW,216,0.0,0.0,92,0.00,,,0.00,0,HR-IXPWINDi_r2_v1.2.,2013-03-19 04:47:00,
2013-03-18 21:52:00,49.4,47.1,30.04,SW,216,0.0,1.0,92,0.00,,,0.00,0,HR-IXPWINDi_r2_v1.2.,2013-03-19 04:52:00,
2013-03-18 21:57:00,49.0,46.7,30.04,SW,222,1.0,2.0,92,0.00,,,0.00,0,HR-IXPWINDi_r2_v1.2.,2013-03-19 04:57:00,
2013-03-18 22:02:00,49.2,47.2,30.04,SW,222,0.0,2.0,93,0.00,,,0.00,0,HR-IXPWINDi_r2_v1.2.,2013-03-19 05:02:00,
2013-03-18 22:07:00,49.0,46.7,30.03,SW,222,0.0,2.0,92,0.00,,,0.00,0,HR-IXPWINDi_r2_v1.2.,2013-03-19 05:07:00,
2013-03-18 22:13:00,48.6,46.6,30.03,SW,222,0.0,1.0,93,0.00,,,0.00,0,HR-IXPWINDi_r2_v1.2.,2013-03-19 05:13:00,
2013-03-18 22:18:00,48.4,46.4,30.03,SW,222,0.0,1.0,93,0.00,,,0.00,0,HR-IXPWINDi_r2_v1.2.,2013-03-19 05:18:00,
2013-03-18 22:23:00,48.6,46.6,30.03,SW,222,1.0,3.0,93,0.00,,,0.00,0,HR-IXPWINDi_r2_v1.2.,2013-03-19 05:23:00,
2013-03-18 22:28:00,48.8,46.8,30.03,SW,222,0.0,3.0,93,0.00,,,0.00,0,HR-IXPWINDi_r2_v1.2.,2013-03-19 05:28:00,
2013-03-18 22:33:00,48.5,46.5,30.03,SW,222,0.0,2.0,93,0.00,,,0.00,0,HR-IXPWINDi_r2_v1.2.,2013-03-19 05:33:00,
2013-03-18 22:38:00,48.3,46.3,30.03,SW,222,0.0,1.0,93,0.00,,,0.00,0,HR-IXPWINDi_r2_v1.2.,2013-03-19 05:38:00,
2013-03-18 22:43:00,47.9,45.9,30.03,WSW,254,1.0,2.0,93,0.00,,,0.00,0,HR-IXPWINDi_r2_v1.2.,2013-03-19 05:43:00,
2013-03-18 22:49:00,48.1,46.4,30.04,West,263,0.0,3.0,94,0.00,,,0.00,0,HR-IXPWINDi_r2_v1.2.,2013-03-19 05:49:00,
2013-03-18 22:54:00,48.1,46.1,30.04,West,263,0.0,3.0,93,0.00,,,0.00,0,HR-IXPWINDi_r2_v1.2.,2013-03-19 05:54:00,
2013-03-18 22:59:00,47.8,45.8,30.04,West,263,0.0,1.0,93,0.00,,,0.00,0,HR-IXPWINDi_r2_v1.2.,2013-03-19 05:59:00,
2013-03-18 23:04:00,47.6,45.9,30.05,West,263,0.0,2.0,94,0.00,,,0.00,0,HR-IXPWINDi_r2_v1.2.,2013-03-19 06:04:00,
2013-03-18 23:10:00,47.4,45.4,30.05,WNW,291,1.0,3.0,93,0.00,,,0.00,0,HR-IXPWINDi_r2_v1.2.,2013-03-19 06:10:00,
2013-03-18 23:15:00,48.1,46.4,30.06,NW,317,1.0,4.0,94,0.00,,,0.00,0,HR-IXPWINDi_r2_v1.2.,2013-03-19 06:15:00,
2013-03-18 23:20:00,48.2,46.5,30.05,NNW,342,3.0,4.0,94,0.00,,,0.00,0,HR-IXPWINDi_r2_v1.2.,2013-03-19 06:20:00,
2013-03-18 23:25:00,48.2,46.5,30.06,NW,319,1.0,3.0,94,0.00,,,0.00,0,HR-IXPWINDi_r2_v1.2.,2013-03-19 06:25:00,
2013-03-18 23:30:00,48.7,47.0,30.05,NW,319,2.0,3.0,94,0.00,,,0.00,0,HR-IXPWINDi_r2_v1.2.,2013-03-19 06:30:00,
2013-03-18 23:36:00,48.9,47.2,30.05,NW,319,1.0,3.0,94,0.00,,,0.00,0,HR-IXPWINDi_r2_v1.2.,2013-03-19 06:36:00,
2013-03-18 23:41:00,48.5,46.8,30.05,NW,319,0.0,3.0,94,0.00,,,0.00,0,HR-IXPWINDi_r2_v1.2.,2013-03-19 06:41:00,
2013-03-18 23:46:00,48.3,46.6,30.05,NW,319,0.0,2.0,94,0.00,,,0.00,0,HR-IXPWINDi_r2_v1.2.,2013-03-19 06:46:00,
2013-03-18 23:51:00,48.2,46.5,30.04,NW,319,1.0,1.0,94,0.00,,,0.00,0,HR-IXPWINDi_r2_v1.2.,2013-03-19 06:51:00,
2013-03-18 23:56:00,48.2,46.5,30.04,NW,320,0.0,2.0,94,0.00,,,0.00,0,HR-IXPWINDi_r2_v1.2.,2013-03-19 06:56:00,